Home   Weather   Santa Cruz de Tenerife   Past weeks
Flag for Spain

Past Weather in Santa Cruz de Tenerife, Canary Islands, Spain — Yesterday and Last 2 Weeks

Now
61 °F

Passing clouds.


Feels Like: 61 °F
Forecast: 73 / 69 °F
Wind: 13 mph from West

Location: Tenerife / Los Rodeos

Current Time: Jul 17, 2019 at 6:30:21 am

Latest Report: Jul 17, 2019 at 5:30 am


Visibility: 5 mi

Pressure: 30.12 "Hg

Humidity: 100%

Dew Point: 61 °F

Location of Santa Cruz de TenerifeLocation

Past Weather in Santa Cruz de Tenerife — Graph

°F

Santa Cruz de Tenerife Temperature Yesterday

Maximum temperature yesterday: 72 °F (at 2:30 pm)
Minimum temperature yesterday: 61 °F (at 7:00 am)
Average temperature yesterday: 65 °F

High & Low Weather Summary for the Past Weeks

 TemperatureHumidityPressure
High75 °F (Jul 6, 1:30 pm)100% (Jul 4, 3:30 am)30.21 "Hg (Jul 4, 3:30 am)
Low59 °F (Jul 4, 3:30 am)54% (Jul 6, 3:30 pm)30.04 "Hg (Jul 11, 6:00 am)
Average65 °F85%30.12 "Hg
* Reported Jul 2 5:00 am — Jul 17 5:30 am, Santa Cruz de Tenerife. Weather by CustomWeather, © 2019

Note: Actual official high and low records may vary slightly from our data, if they occured in-between our weather recording intervals... More about our weather records

Advertising

Santa Cruz de Tenerife Weather History for the Previous 24 Hours

Scroll right to see more
 ConditionsComfort  
Time TempWeatherWind HumidityBarometerVisibility
5:30 am
Wed, Jul 17
61 °FPassing clouds.13 mph100%30.12 "Hg5 mi
5:00 am63 °FPassing clouds.15 mph100%30.12 "Hg4 mi
4:30 am61 °FPassing clouds.14 mph100%30.12 "Hg6 mi
4:00 am61 °FPassing clouds.15 mph100%30.12 "HgN/A
3:30 am63 °FPartly cloudy.16 mph94%30.12 "HgN/A
3:00 am61 °FPartly cloudy.15 mph100%30.15 "Hg6 mi
2:30 am61 °FPassing clouds.15 mph100%30.15 "HgN/A
2:00 am63 °FPassing clouds.14 mph94%30.15 "HgN/A
1:30 am63 °FPassing clouds.15 mph94%30.15 "HgN/A
1:00 am63 °FPassing clouds.14 mph94%30.15 "HgN/A
12:30 am63 °FPassing clouds.15 mph100%30.15 "HgN/A
12:00 am63 °FPartly cloudy.16 mph100%30.15 "Hg6 mi
11:30 pm
Tue, Jul 16
63 °FPassing clouds.16 mph94%30.15 "HgN/A
11:00 pm63 °FPassing clouds.17 mph94%30.15 "HgN/A
10:30 pm63 °FPassing clouds.17 mph94%30.12 "HgN/A
10:00 pm63 °FPassing clouds.18 mph94%30.12 "HgN/A
9:30 pm63 °FPassing clouds.18 mph94%30.12 "HgN/A
9:00 pm63 °FPassing clouds.17 mph94%30.12 "HgN/A
8:30 pm64 °FPassing clouds.16 mph88%30.09 "HgN/A
8:00 pm64 °FPassing clouds.18 mph88%30.09 "HgN/A
7:30 pm64 °FPassing clouds.18 mph88%30.09 "HgN/A
7:00 pm66 °FScattered clouds.17 mph83%30.09 "HgN/A
6:30 pm66 °FScattered clouds.16 mph83%30.09 "HgN/A
6:00 pm66 °FFog.17 mph88%30.09 "HgN/A
5:30 pm68 °FFog.18 mph83%30.09 "HgN/A
5:00 pm70 °FScattered clouds.20 mph73%30.09 "HgN/A
4:30 pm70 °FScattered clouds.21 mph73%30.09 "HgN/A
4:00 pm70 °FScattered clouds.21 mph73%30.09 "HgN/A
3:30 pm70 °FScattered clouds.18 mph73%30.09 "HgN/A
3:00 pm68 °FPassing clouds.20 mph69%30.09 "HgN/A
2:30 pm72 °FScattered clouds.20 mph69%30.09 "HgN/A
2:00 pm66 °FScattered clouds.20 mph78%30.09 "HgN/A
1:30 pm68 °FScattered clouds.18 mph73%30.09 "HgN/A
1:00 pm70 °FScattered clouds.20 mph73%30.09 "HgN/A
12:30 pm68 °FScattered clouds.20 mph78%30.09 "HgN/A
12:00 pm68 °FScattered clouds.18 mph73%30.09 "HgN/A
11:30 am68 °FScattered clouds.18 mph78%30.09 "HgN/A
11:00 am68 °FScattered clouds.18 mph78%30.09 "HgN/A
10:30 am64 °FPartly sunny.17 mph88%30.09 "HgN/A
10:00 am64 °FPartly sunny.18 mph88%30.09 "HgN/A
9:30 am64 °FPartly sunny.18 mph88%30.07 "HgN/A
9:00 am64 °FPartly sunny.20 mph88%30.07 "HgN/A
8:30 am63 °FPartly sunny.18 mph94%30.07 "HgN/A
8:00 am63 °FPartly sunny.18 mph94%30.07 "HgN/A
7:30 am63 °FPartly sunny.18 mph94%30.07 "HgN/A
7:00 am61 °FPassing clouds.16 mph94%30.07 "HgN/A
6:30 am63 °FPassing clouds.17 mph94%30.07 "HgN/A
6:00 am63 °FFog.20 mph100%30.04 "Hg6 mi
Weather by CustomWeather, © 2019

See weather overview